weather.gov     
National Weather Service

Terminal Aerodrome Forecast
NWS Homepage
This page is being discontinued on March 12, 2014.
The same data is available at this site. Please update your bookmarks.
Thank you, and we apologize for the inconvenience.
Please send an email to SR-SRH.Webmaster@noaa.gov with any concerns.


Current Version
Previous Version:    01  02  03  04  05  06  07  08  09  10  11  12  13  14  15  16  17  18  19  20  21  22  23  24  25  26  27  
[Printable]
111
FTUS44 KSHV 230500 RRA
TAFMLU
TAF
KMLU 230549Z 2306/2406 VRB04KT P6SM -RA SCT015 OVC050
     FM230700 12008KT 6SM -RA BR OVC015
     FM230900 13008KT 5SM -RA BR OVC008
     FM231400 15010KT 3SM BR OVC007
     FM231700 22013G18KT P6SM BKN015
     FM231900 22016G23KT P6SM BKN035
     FM232100 20012G19KT P6SM OVC040
     FM240100 20014G21KT P6SM BKN045=


U.S. Dept. of Commerce
NOAA National Weather Service
1325 East West Highway
Silver Spring, MD 20910
E-mail: w-nws.webmaster@noaa.gov
Page last modified: May 16, 2007
NATIONAL WEATHER SERVICE: for Safety, for Work, for Fun - FOR LIFE